Skip Page Navigation
NASA JPL Caltech
NASA Logo - Jet Propulsion Laboratory + View the NASA Portal
+ Near-Earth Object (NEO) Program
Search JPL
JPL Home Earth Solar System Stars & Galaxies Technology
JPL Solar System Dynamics
BODIES ORBITS EPHEMERIDES TOOLS PHYSICAL DATA DISCOVERY FAQ SITE MAP
JPL Small-Body Database Browser
Search: [ help ]  
(2002 JX8)
Classification: Aten [NEO, PHA]          SPK-ID: 3124996
Ephemeris | Orbit Diagram | Orbital Elements | Physical Parameters | Close-Approach Data ]

[ hide orbit diagram ]
Orbit Diagram
Note: Make sure you have Java enabled on your browser to see the applet. This applet is provided as a 3D orbit visualization tool. The applet was implemented using 2-body methods, and hence should not be used for determining accurate long-term trajectories (over several years or decades) or planetary encounter circumstances. For accurate long-term ephemerides, please instead use our Horizons system.
Orbit Viewer

Additional Notes: the orbits shown in the applet are color coded. The planets are white lines, and the asteroid/comet is a blue line. The bright white line indicates the portion of the orbit that is above the ecliptic plane, and the darker portion is below the ecliptic plane. Likewise for the asteroid/comet orbit, the light blue indicates the portion above the ecliptic plane, and the dark blue the portion below the ecliptic plane.

Orbit Viewer applet originally written and kindly provided by Osamu Ajiki (AstroArts), and further modified by Ron Baalke (JPL).


Orbital Elements at Epoch 2456400.5 (2013-Apr-18.0) TDB
Reference: JPL 14 (heliocentric ecliptic J2000)
 Element Value Uncertainty (1-sigma)   Units 
e .3052373491070584 1.5748e-07  
a .7700431576705203 2.4419e-08 AU
q .5349972255251422 1.3241e-07 AU
i 4.314939079811277 4.0406e-05 deg
node 68.6121821887931 0.00019835 deg
peri 338.1389118130591 0.00020945 deg
M 237.3798241877652 0.00043822 deg
tp 2456484.567950516135
(2013-Jul-11.06795052)
0.00030388 JED
period 246.8147022733993
0.68
1.174e-05
3.214e-08
d
yr
n 1.458584098451413 6.9379e-08 deg/d
Q 1.005089089815899 3.1872e-08 AU
  Orbit Determination Parameters
   # obs. used (total)      84  
   data-arc span      2215 days (6.06 yr)  
   first obs. used      2002-05-04  
   last obs. used      2008-05-27  
   planetary ephem.      DE405  
   SB-pert. ephem.      SB405-CPV-2  
   condition code      2  
   fit RMS      .70406  
   data source      ORB  
   producer      Otto Matic  
   solution date      2011-Sep-14 19:45:46  

Additional Information
 Earth MOID = .0201165 AU 
 T_jup = 7.488 
[ show covariance matrix ]

Ephemeris | Orbit Diagram | Orbital Elements | Physical Parameters | Close-Approach Data ]

Physical Parameter Table
Parameter Symbol Value Units Sigma Reference Notes
absolute magnitude H 19.813 mag 1.16 14 autocmod 2.5a

[ show close-approach data ]
Ephemeris | Orbit Diagram | Orbital Elements | Physical Parameters | Close-Approach Data ]
ABOUT SSD CREDITS/AWARDS PRIVACY/COPYRIGHT GLOSSARY LINKS
FirstGov 2013-May-19 17:54 UT
(server date/time)  
NASA Home Page
Site Manager:   Donald K. Yeomans
Webmaster  Alan B. Chamberlin